TimeEDT,TemperatureF,Dew PointF,Humidity,Sea Level PressureIn,VisibilityMPH,Wind Direction,Wind SpeedMPH,Gust SpeedMPH,PrecipitationIn,Events,Conditions,WindDirDegrees,DateUTC
12:53 AM,59.0,54.0,83,30.06,10.0,Calm,Calm,-,N/A,,Clear,0,2013-09-05 04:53:00
1:53 AM,61.0,53.1,75,30.02,10.0,Calm,Calm,-,N/A,,Clear,0,2013-09-05 05:53:00
3:53 AM,64.9,54.0,68,30.00,10.0,Variable,3.5,-,N/A,,Clear,0,2013-09-05 07:53:00
4:53 AM,66.9,54.0,63,30.00,10.0,SSW,6.9,-,N/A,,Clear,210,2013-09-05 08:53:00
5:53 AM,68.0,54.0,61,30.00,10.0,SW,10.4,-,N/A,,Clear,220,2013-09-05 09:53:00
6:53 AM,66.0,55.0,68,30.01,10.0,SSW,5.8,-,N/A,,Clear,210,2013-09-05 10:53:00
7:53 AM,68.0,55.0,63,30.02,10.0,Calm,Calm,-,N/A,,Clear,0,2013-09-05 11:53:00
8:53 AM,70.0,55.9,61,30.03,10.0,Variable,4.6,-,N/A,,Clear,0,2013-09-05 12:53:00
10:53 AM,73.9,57.9,57,30.05,10.0,Variable,6.9,18.4,N/A,,Partly Cloudy,0,2013-09-05 14:53:00
11:53 AM,75.0,59.0,57,30.05,10.0,Variable,5.8,-,N/A,,Partly Cloudy,0,2013-09-05 15:53:00
12:53 PM,73.0,59.0,61,30.05,10.0,Calm,Calm,-,N/A,,Mostly Cloudy,0,2013-09-05 16:53:00
1:53 PM,75.9,59.0,56,30.03,10.0,Variable,6.9,-,N/A,,Mostly Cloudy,0,2013-09-05 17:53:00
2:53 PM,79.0,55.9,45,30.02,10.0,Variable,4.6,-,N/A,,Mostly Cloudy,0,2013-09-05 18:53:00
3:53 PM,80.1,50.0,35,30.01,10.0,NNW,8.1,-,N/A,,Clear,330,2013-09-05 19:53:00
4:53 PM,79.0,46.0,31,30.01,10.0,NW,6.9,-,N/A,,Clear,310,2013-09-05 20:53:00
6:53 PM,75.0,42.1,31,30.05,10.0,Variable,3.5,-,N/A,,Clear,0,2013-09-05 22:53:00
7:53 PM,72.0,43.0,35,30.06,10.0,Calm,Calm,-,N/A,,Clear,0,2013-09-05 23:53:00
8:53 PM,69.1,44.1,40,30.09,10.0,Calm,Calm,-,N/A,,Clear,0,2013-09-06 00:53:00
9:53 PM,66.9,45.0,45,30.11,10.0,Calm,Calm,-,N/A,,Clear,0,2013-09-06 01:53:00
10:53 PM,64.0,45.0,50,30.12,10.0,Calm,Calm,-,N/A,,Clear,0,2013-09-06 02:53:00
11:53 PM,59.0,46.0,62,30.14,10.0,Calm,Calm,-,N/A,,Clear,0,2013-09-06 03:53:00